| time (UTC) | temp C | wind direction | speed KPH | gust KPH | rain 1hr cm | rain 24hr cm | rain mn cm | humidity % | barometer mb |
| 20260505012137 | 10 | 0 | 0.0 | 0.0 | 0.00 | 0.05 | 0.08 | 79 | 1006.5 |
| 20260505012105 | 10 | 0 | 0.0 | 0.0 | 0.00 | 0.05 | 0.08 | 79 | 1006.5 |
| 20260505011740 | 10 | 0 | 0.0 | 0.0 | 0.00 | 0.08 | 0.08 | 79 | 1006.4 |
| 20260505011234 | 10 | 0 | 0.0 | 0.0 | 0.00 | 0.05 | 0.08 | 79 | 1006.3 |
| 20260505011005 | 10 | 0 | 0.0 | 0.0 | 0.00 | 0.05 | 0.08 | 79 | 1006.3 |
| 20260505010840 | 10 | 0 | 0.0 | 0.0 | 0.00 | 0.08 | 0.08 | 79 | 1006.3 |
| 20260505010333 | 10 | 0 | 0.0 | 0.0 | 0.00 | 0.05 | 0.08 | 79 | 1006.2 |
| 20260505005940 | 10 | 0 | 0.0 | 0.0 | 0.00 | 0.08 | 0.08 | 78 | 1006.2 |
| 20260505005904 | 10 | 0 | 0.0 | 0.0 | 0.00 | 0.05 | 0.08 | 78 | 1006.2 |
| 20260505005434 | 10 | 0 | 0.0 | 0.0 | 0.00 | 0.05 | 0.08 | 78 | 1006.1 |
| 20260505005040 | 10 | 0 | 0.0 | 0.0 | 0.00 | 0.08 | 0.08 | 77 | 1006.1 |
| 20260505004804 | 10 | 0 | 0.0 | 0.0 | 0.00 | 0.05 | 0.08 | 77 | 1006.1 |
| 20260505004533 | 10 | 0 | 0.0 | 0.0 | 0.00 | 0.05 | 0.08 | 77 | 1006.1 |
| 20260505004140 | 10 | 0 | 0.0 | 0.0 | 0.00 | 0.08 | 0.08 | 77 | 1006.0 |
| 20260505003704 | 10 | 0 | 0.0 | 0.0 | 0.00 | 0.05 | 0.08 | 77 | 1005.8 |
| 20260505003634 | 11 | 0 | 0.0 | 0.0 | 0.00 | 0.05 | 0.08 | 77 | 1005.8 |
| 20260505002734 | 11 | 0 | 0.0 | 0.0 | 0.00 | 0.05 | 0.08 | 75 | 1005.7 |
| 20260505002604 | 11 | 0 | 0.0 | 0.0 | 0.00 | 0.05 | 0.08 | 75 | 1005.7 |
| 20260505002339 | 11 | 0 | 0.0 | 0.0 | 0.00 | 0.08 | 0.08 | 74 | 1005.5 |
| 20260505001834 | 11 | 0 | 0.0 | 0.0 | 0.00 | 0.05 | 0.08 | 74 | 1005.5 |
| 20260505001504 | 11 | 0 | 0.0 | 0.0 | 0.00 | 0.05 | 0.08 | 73 | 1005.4 |
| 20260505000933 | 11 | 0 | 0.0 | 0.0 | 0.00 | 0.05 | 0.08 | 72 | 1005.3 |
| 20260505000539 | 11 | 0 | 0.0 | 0.0 | 0.00 | 0.08 | 0.08 | 72 | 1005.3 |
| 20260505000405 | 12 | 0 | 0.0 | 0.0 | 0.00 | 0.05 | 0.08 | 72 | 1005.3 |
| 20260505000032 | 12 | 0 | 0.0 | 0.0 | 0.00 | 0.05 | 0.08 | 72 | 1005.3 |
| 20260504235639 | 12 | 0 | 0.0 | 0.0 | 0.00 | 0.08 | 0.08 | 71 | 1005.3 |
| 20260504235305 | 12 | 0 | 0.0 | 0.0 | 0.00 | 0.05 | 0.08 | 70 | 1005.2 |
| 20260504235133 | 12 | 0 | 0.0 | 0.0 | 0.00 | 0.05 | 0.08 | 70 | 1005.2 |
| 20260504234739 | 12 | 0 | 0.0 | 0.0 | 0.00 | 0.08 | 0.08 | 70 | 1005.2 |
| 20260504234235 | 13 | 0 | 0.0 | 0.0 | 0.00 | 0.05 | 0.08 | 69 | 1005.1 |
| 20260504234204 | 13 | 0 | 0.0 | 0.0 | 0.00 | 0.05 | 0.08 | 69 | 1005.1 |
| 20260504233839 | 13 | 0 | 0.0 | 0.0 | 0.00 | 0.08 | 0.08 | 69 | 1005.0 |
| 20260504233332 | 13 | 0 | 0.0 | 0.0 | 0.00 | 0.05 | 0.08 | 67 | 1004.9 |
| 20260504233105 | 13 | 0 | 0.0 | 0.0 | 0.00 | 0.05 | 0.08 | 67 | 1004.9 |
| 20260504232434 | 14 | 171 | 0.0 | 3.2 | 0.00 | 0.05 | 0.08 | 65 | 1004.8 |
| 20260504232004 | 14 | 171 | 0.0 | 3.2 | 0.00 | 0.05 | 0.08 | 64 | 1004.8 |
| 20260504231533 | 15 | 172 | 0.0 | 3.2 | 0.00 | 0.05 | 0.08 | 63 | 1004.8 |
| 20260504231139 | 15 | 168 | 0.0 | 3.2 | 0.00 | 0.08 | 0.08 | 62 | 1004.8 |
| 20260504230905 | 15 | 166 | 0.0 | 3.2 | 0.00 | 0.05 | 0.08 | 60 | 1004.8 |
| 20260504230633 | 15 | 166 | 0.0 | 6.4 | 0.00 | 0.05 | 0.08 | 60 | 1004.8 |
| 20260504230239 | 15 | 175 | 1.6 | 8.0 | 0.00 | 0.08 | 0.08 | 61 | 1004.8 |
| 20260504225804 | 15 | 174 | 1.6 | 8.0 | 0.00 | 0.05 | 0.08 | 59 | 1004.7 |
| 20260504225733 | 15 | 173 | 1.6 | 8.0 | 0.00 | 0.05 | 0.08 | 59 | 1004.7 |
| 20260504224834 | 16 | 170 | 1.6 | 9.7 | 0.00 | 0.05 | 0.08 | 58 | 1004.6 |
| 20260504224704 | 16 | 178 | 1.6 | 9.7 | 0.00 | 0.05 | 0.08 | 58 | 1004.7 |
| 20260504223933 | 16 | 219 | 0.0 | 6.4 | 0.00 | 0.05 | 0.08 | 58 | 1004.6 |
| 20260504223605 | 16 | 230 | 0.0 | 3.2 | 0.00 | 0.05 | 0.08 | 60 | 1004.6 |
| 20260504223539 | 16 | 228 | 0.0 | 3.2 | 0.00 | 0.08 | 0.08 | 60 | 1004.6 |
| 20260504223032 | 16 | 171 | 1.6 | 8.0 | 0.00 | 0.05 | 0.08 | 60 | 1004.6 |
| 20260504222639 | 16 | 178 | 1.6 | 8.0 | 0.00 | 0.08 | 0.08 | 58 | 1004.6 |
| 20260504222504 | 16 | 191 | 1.6 | 8.0 | 0.00 | 0.05 | 0.08 | 59 | 1004.5 |
| 20260504222133 | 16 | 118 | 1.6 | 8.0 | 0.00 | 0.05 | 0.08 | 60 | 1004.5 |
| 20260504221405 | 16 | 127 | 1.6 | 8.0 | 0.00 | 0.05 | 0.08 | 60 | 1004.6 |
| 20260504221233 | 16 | 133 | 1.6 | 6.4 | 0.00 | 0.05 | 0.08 | 58 | 1004.6 |
| 20260504220839 | 16 | 186 | 1.6 | 9.7 | 0.00 | 0.08 | 0.08 | 59 | 1004.5 |
| 20260504220336 | 16 | 182 | 3.2 | 9.7 | 0.00 | 0.05 | 0.08 | 59 | 1004.6 |
| 20260504220305 | 16 | 182 | 3.2 | 9.7 | 0.00 | 0.05 | 0.08 | 59 | 1004.6 |
| 20260504215939 | 16 | 184 | 3.2 | 8.0 | 0.00 | 0.08 | 0.08 | 58 | 1004.5 |
| 20260504215432 | 16 | 184 | 3.2 | 11.3 | 0.00 | 0.05 | 0.08 | 59 | 1004.6 |
| 20260504215204 | 16 | 190 | 3.2 | 11.3 | 0.00 | 0.05 | 0.08 | 59 | 1004.6 |
| 20260504215039 | 16 | 185 | 3.2 | 14.5 | 0.00 | 0.08 | 0.08 | 58 | 1004.6 |
| 20260504214533 | 16 | 188 | 4.8 | 14.5 | 0.00 | 0.05 | 0.08 | 59 | 1004.6 |
| 20260504214139 | 16 | 187 | 4.8 | 14.5 | 0.00 | 0.08 | 0.08 | 58 | 1004.7 |
| 20260504214104 | 16 | 189 | 4.8 | 14.5 | 0.00 | 0.05 | 0.08 | 58 | 1004.7 |
| 20260504213633 | 16 | 201 | 3.2 | 14.5 | 0.00 | 0.05 | 0.08 | 58 | 1004.6 |
| 20260504213005 | 16 | 207 | 3.2 | 11.3 | 0.00 | 0.05 | 0.08 | 58 | 1004.5 |
| 20260504212734 | 16 | 197 | 3.2 | 14.5 | 0.00 | 0.05 | 0.08 | 58 | 1004.5 |
| 20260504212339 | 16 | 188 | 3.2 | 14.5 | 0.00 | 0.08 | 0.08 | 60 | 1004.6 |
| 20260504211904 | 16 | 178 | 1.6 | 14.5 | 0.00 | 0.05 | 0.08 | 58 | 1004.5 |
| 20260504211833 | 16 | 179 | 1.6 | 8.0 | 0.00 | 0.05 | 0.08 | 58 | 1004.5 |
| 20260504211439 | 16 | 192 | 3.2 | 11.3 | 0.00 | 0.08 | 0.08 | 57 | 1004.4 |
| 20260504210931 | 16 | 198 | 3.2 | 11.3 | 0.00 | 0.05 | 0.08 | 57 | 1004.4 |
| 20260504210804 | 16 | 200 | 3.2 | 11.3 | 0.00 | 0.05 | 0.08 | 57 | 1004.4 |
| 20260504210538 | 16 | 200 | 3.2 | 11.3 | 0.00 | 0.08 | 0.08 | 59 | 1004.3 |
| 20260504210115 | 16 | 196 | 3.2 | 14.5 | 0.00 | 0.05 | 0.08 | 59 | 1004.4 |
| 20260504210032 | 16 | 196 | 3.2 | 14.5 | 0.00 | 0.05 | 0.08 | 59 | 1004.4 |
| 20260504205705 | 16 | 198 | 3.2 | 14.5 | 0.00 | 0.05 | 0.08 | 58 | 1004.2 |
| 20260504205638 | 16 | 199 | 3.2 | 14.5 | 0.00 | 0.08 | 0.08 | 58 | 1004.2 |
| 20260504205134 | 17 | 141 | 0.0 | 14.5 | 0.00 | 0.05 | 0.08 | 58 | 1004.3 |
| 20260504204603 | 16 | 172 | 3.2 | 12.9 | 0.00 | 0.05 | 0.08 | 59 | 1004.2 |
| 20260504204232 | 16 | 172 | 3.2 | 12.9 | 0.00 | 0.05 | 0.08 | 60 | 1004.2 |
| 20260504203838 | 16 | 166 | 1.6 | 12.9 | 0.00 | 0.08 | 0.08 | 62 | 1004.3 |
| 20260504203503 | 16 | 190 | 0.0 | 8.0 | 0.00 | 0.05 | 0.08 | 62 | 1004.3 |
| 20260504203332 | 16 | 190 | 0.0 | 8.0 | 0.00 | 0.05 | 0.08 | 62 | 1004.4 |
| 20260504202938 | 16 | 205 | 0.0 | 3.2 | 0.00 | 0.08 | 0.08 | 62 | 1004.4 |
| 20260504202434 | 16 | 159 | 0.0 | 1.6 | 0.00 | 0.05 | 0.08 | 62 | 1004.3 |
| 20260504202403 | 16 | 159 | 0.0 | 1.6 | 0.00 | 0.05 | 0.08 | 62 | 1004.3 |
| 20260504202038 | 16 | 159 | 0.0 | 1.6 | 0.00 | 0.08 | 0.08 | 62 | 1004.3 |
| 20260504201304 | 16 | 199 | 3.2 | 16.1 | 0.00 | 0.05 | 0.08 | 60 | 1004.4 |
| 20260504201138 | 16 | 199 | 3.2 | 16.1 | 0.00 | 0.08 | 0.08 | 60 | 1004.3 |
| 20260504200631 | 16 | 217 | 3.2 | 16.1 | 0.00 | 0.05 | 0.08 | 61 | 1004.2 |
| 20260504200238 | 16 | 189 | 4.8 | 12.9 | 0.00 | 0.08 | 0.08 | 61 | 1004.2 |
| 20260504200204 | 16 | 188 | 4.8 | 12.9 | 0.00 | 0.05 | 0.08 | 62 | 1004.2 |
| 20260504195733 | 16 | 181 | 4.8 | 14.5 | 0.00 | 0.05 | 0.08 | 62 | 1004.0 |
| 20260504195338 | 16 | 177 | 4.8 | 16.1 | 0.00 | 0.08 | 0.08 | 63 | 1004.1 |
| 20260504195103 | 16 | 186 | 3.2 | 20.9 | 0.00 | 0.05 | 0.08 | 64 | 1004.2 |
| 20260504194833 | 16 | 190 | 3.2 | 20.9 | 0.00 | 0.05 | 0.08 | 64 | 1004.2 |
| 20260504194438 | 16 | 185 | 3.2 | 20.9 | 0.00 | 0.08 | 0.08 | 65 | 1004.1 |
| 20260504194003 | 16 | 176 | 3.2 | 19.3 | 0.00 | 0.05 | 0.08 | 68 | 1004.2 |
| 20260504193932 | 16 | 189 | 3.2 | 19.3 | 0.00 | 0.05 | 0.08 | 66 | 1004.2 |
| 20260504193538 | 16 | 199 | 4.8 | 19.3 | 0.00 | 0.08 | 0.08 | 66 | 1004.2 |
| 20260504193032 | 15 | 216 | 4.8 | 16.1 | 0.00 | 0.05 | 0.08 | 69 | 1004.3 |
| 20260504192904 | 15 | 218 | 4.8 | 11.3 | 0.00 | 0.05 | 0.08 | 70 | 1004.3 |
| 20260504192638 | 15 | 215 | 3.2 | 16.1 | 0.00 | 0.08 | 0.08 | 70 | 1004.3 |
| 20260504192131 | 15 | 204 | 3.2 | 16.1 | 0.00 | 0.05 | 0.08 | 71 | 1004.4 |
| 20260504191803 | 15 | 172 | 3.2 | 11.3 | 0.00 | 0.05 | 0.08 | 72 | 1004.5 |
| 20260504191233 | 15 | 188 | 3.2 | 17.7 | 0.00 | 0.05 | 0.08 | 72 | 1004.5 |
| 20260504190838 | 15 | 199 | 3.2 | 17.7 | 0.00 | 0.08 | 0.08 | 73 | 1004.5 |
| 20260504190703 | 15 | 205 | 4.8 | 17.7 | 0.00 | 0.05 | 0.08 | 74 | 1004.4 |
| 20260504190333 | 14 | 196 | 4.8 | 17.7 | 0.00 | 0.05 | 0.08 | 74 | 1004.4 |
| 20260504185938 | 14 | 189 | 3.2 | 14.5 | 0.00 | 0.08 | 0.08 | 76 | 1004.4 |
| 20260504185603 | 14 | 188 | 3.2 | 11.3 | 0.00 | 0.05 | 0.08 | 78 | 1004.4 |
| 20260504185432 | 13 | 192 | 1.6 | 11.3 | 0.00 | 0.05 | 0.08 | 79 | 1004.4 |
| 20260504185038 | 13 | 193 | 3.2 | 9.7 | 0.00 | 0.08 | 0.08 | 80 | 1004.4 |
| 20260504184537 | 12 | 193 | 3.2 | 11.3 | 0.00 | 0.05 | 0.08 | 82 | 1004.4 |
| 20260504184502 | 12 | 193 | 3.2 | 11.3 | 0.00 | 0.05 | 0.08 | 82 | 1004.4 |
| 20260504184138 | 12 | 193 | 3.2 | 11.3 | 0.03 | 0.08 | 0.08 | 82 | 1004.4 |
| 20260504183631 | 12 | 198 | 1.6 | 8.0 | 0.00 | 0.05 | 0.08 | 83 | 1004.6 |
| 20260504183403 | 12 | 198 | 1.6 | 8.0 | 0.00 | 0.05 | 0.08 | 83 | 1004.6 |
| 20260504183238 | 11 | 202 | 3.2 | 9.7 | 0.03 | 0.10 | 0.08 | 84 | 1004.7 |
| 20260504182731 | 11 | 214 | 1.6 | 9.7 | 0.03 | 0.08 | 0.08 | 85 | 1004.8 |
| 20260504182338 | 11 | 212 | 1.6 | 9.7 | 0.05 | 0.10 | 0.08 | 85 | 1004.8 |
| 20260504182304 | 11 | 206 | 1.6 | 9.7 | 0.03 | 0.08 | 0.08 | 86 | 1004.8 |
| 20260504181831 | 11 | 182 | 1.6 | 8.0 | 0.03 | 0.08 | 0.08 | 87 | 1004.9 |
| 20260504181438 | 11 | 177 | 0.0 | 8.0 | 0.05 | 0.10 | 0.08 | 88 | 1004.9 |
| 20260504181202 | 11 | 171 | 0.0 | 3.2 | 0.05 | 0.13 | 0.08 | 88 | 1004.9 |
| 20260504180932 | 10 | 0 | 0.0 | 0.0 | 0.05 | 0.13 | 0.08 | 87 | 1004.9 |
| 20260504180538 | 10 | 167 | 0.0 | 8.0 | 0.08 | 0.13 | 0.08 | 87 | 1004.9 |
| 20260504180103 | 10 | 174 | 1.6 | 8.0 | 0.05 | 0.13 | 0.08 | 86 | 1004.9 |
| 20260504180032 | 10 | 174 | 1.6 | 8.0 | 0.05 | 0.13 | 0.08 | 86 | 1004.8 |
| 20260504175638 | 10 | 176 | 1.6 | 8.0 | 0.08 | 0.15 | 0.08 | 86 | 1004.9 |
| 20260504175132 | 10 | 174 | 1.6 | 8.0 | 0.05 | 0.13 | 0.08 | 85 | 1005.0 |
| 20260504175004 | 10 | 174 | 1.6 | 8.0 | 0.05 | 0.13 | 0.08 | 85 | 1005.0 |
| 20260504174738 | 11 | 172 | 1.6 | 8.0 | 0.05 | 0.13 | 0.05 | 85 | 1005.0 |
| 20260504174231 | 11 | 185 | 1.6 | 6.4 | 0.03 | 0.13 | 0.05 | 84 | 1005.1 |
| 20260504173903 | 11 | 161 | 1.6 | 8.0 | 0.03 | 0.13 | 0.05 | 83 | 1005.0 |
| 20260504173837 | 11 | 161 | 1.6 | 8.0 | 0.05 | 0.15 | 0.05 | 83 | 1005.0 |
| 20260504173332 | 11 | 146 | 1.6 | 8.0 | 0.03 | 0.13 | 0.05 | 82 | 1005.1 |
| 20260504172803 | 11 | 172 | 1.6 | 6.4 | 0.03 | 0.13 | 0.05 | 81 | 1005.1 |
| 20260504172431 | 12 | 170 | 1.6 | 6.4 | 0.00 | 0.13 | 0.03 | 79 | 1005.1 |
| 20260504172037 | 12 | 173 | 3.2 | 14.5 | 0.03 | 0.15 | 0.03 | 78 | 1005.0 |
| 20260504171703 | 12 | 178 | 3.2 | 14.5 | 0.00 | 0.13 | 0.03 | 76 | 1005.0 |
| 20260504171532 | 12 | 183 | 3.2 | 14.5 | 0.00 | 0.18 | 0.03 | 74 | 1005.0 |
| 20260504171137 | 12 | 183 | 3.2 | 14.5 | 0.00 | 0.15 | 0.00 | 72 | 1005.0 |
| 20260504170635 | 13 | 183 | 1.6 | 8.0 | 0.00 | 0.13 | 0.00 | 69 | 1004.9 |
| 20260504170603 | 13 | 183 | 1.6 | 8.0 | 0.00 | 0.13 | 0.00 | 69 | 1004.9 |
| 20260504170237 | 13 | 191 | 1.6 | 8.0 | 0.00 | 0.15 | 0.00 | 68 | 1004.7 |
| 20260504160331 | 13 | 226 | 3.2 | 12.9 | 0.00 | 0.25 | 0.00 | 64 | 1003.9 |
| 20260504150931 | 13 | 221 | 1.6 | 8.0 | 0.00 | 0.38 | 0.00 | 59 | 1004.8 |
| 20260504150537 | 13 | 222 | 1.6 | 8.0 | 0.00 | 0.38 | 0.00 | 58 | 1004.8 |
| 20260504150501 | 13 | 218 | 1.6 | 8.0 | 0.00 | 0.38 | 0.00 | 60 | 1004.8 |
| 20260504141136 | 10 | 213 | 1.6 | 8.0 | 0.00 | 0.53 | 0.00 | 62 | 1005.7 |
| 20260504141002 | 10 | 216 | 1.6 | 8.0 | 0.00 | 0.51 | 0.00 | 62 | 1005.8 |
| 20260504140631 | 10 | 223 | 1.6 | 8.0 | 0.00 | 0.51 | 0.00 | 61 | 1005.8 |
| 20260504140236 | 10 | 216 | 1.6 | 9.7 | 0.00 | 0.56 | 0.00 | 61 | 1005.8 |
| 20260504130402 | 9 | 221 | 1.6 | 8.0 | 0.00 | 0.76 | 0.00 | 59 | 1006.3 |
| 20260504130330 | 10 | 224 | 1.6 | 8.0 | 0.00 | 0.76 | 0.00 | 59 | 1006.4 |
| 20260504110632 | 2 | 202 | 0.0 | 3.2 | 0.00 | 0.94 | 0.00 | 84 | 1006.4 |
| 20260504110300 | 2 | 201 | 0.0 | 3.2 | 0.00 | 0.94 | 0.00 | 85 | 1006.5 |
| 20260504110236 | 2 | 201 | 0.0 | 3.2 | 0.00 | 0.97 | 0.00 | 85 | 1006.5 |
| 20260504100330 | 0 | 0 | 0.0 | 0.0 | 0.00 | 1.04 | 0.00 | 86 | 1006.2 |
| 20260504081759 | 0 | 0 | 0.0 | 0.0 | 0.00 | 1.32 | 0.00 | 88 | 1005.7 |
| 20260504081528 | 0 | 0 | 0.0 | 0.0 | 0.00 | 1.32 | 0.00 | 88 | 1005.7 |
| 20260504081135 | 0 | 0 | 0.0 | 0.0 | 0.00 | 1.35 | 0.00 | 88 | 1005.7 |
| 20260504080700 | 0 | 0 | 0.0 | 0.0 | 0.00 | 1.32 | 0.00 | 88 | 1005.7 |
| 20260504080235 | 0 | 0 | 0.0 | 0.0 | 0.00 | 1.35 | 0.00 | 88 | 1005.7 |
| 20260504070328 | 0 | 0 | 0.0 | 0.0 | 0.00 | 1.32 | 0.00 | 87 | 1005.6 |
| 20260504050629 | 0 | 0 | 0.0 | 0.0 | 0.00 | 1.37 | 0.00 | 85 | 1005.2 |
| 20260504050234 | 1 | 0 | 0.0 | 0.0 | 0.00 | 1.37 | 0.00 | 85 | 1005.2 |
| 20260504050000 | 1 | 0 | 0.0 | 0.0 | 0.00 | 1.37 | 0.00 | 85 | 1005.2 |
| 20260504045727 | 1 | 0 | 0.0 | 0.0 | 0.00 | 1.37 | 0.00 | 85 | 1005.2 |
| 20260504044900 | 1 | 0 | 0.0 | 0.0 | 0.00 | 1.37 | 0.00 | 85 | 1005.1 |
| 20260504044830 | 1 | 0 | 0.0 | 0.0 | 0.00 | 1.37 | 0.00 | 85 | 1005.1 |
| 20260504044434 | 1 | 0 | 0.0 | 0.0 | 0.00 | 1.37 | 0.00 | 85 | 1005.1 |
| 20260504043927 | 1 | 0 | 0.0 | 0.0 | 0.00 | 1.37 | 0.00 | 84 | 1005.0 |
| 20260504043800 | 1 | 0 | 0.0 | 0.0 | 0.00 | 1.37 | 0.00 | 84 | 1005.1 |
| 20260504043534 | 1 | 0 | 0.0 | 0.0 | 0.00 | 1.37 | 0.00 | 84 | 1005.1 |
| 20260504043027 | 1 | 0 | 0.0 | 0.0 | 0.00 | 1.37 | 0.00 | 84 | 1005.0 |
| 20260504042659 | 1 | 0 | 0.0 | 0.0 | 0.00 | 1.37 | 0.00 | 84 | 1005.0 |
| 20260504042127 | 1 | 0 | 0.0 | 0.0 | 0.00 | 1.37 | 0.00 | 84 | 1005.0 |
| 20260504041734 | 1 | 0 | 0.0 | 0.0 | 0.00 | 1.37 | 0.00 | 84 | 1005.0 |
| 20260504041559 | 1 | 0 | 0.0 | 0.0 | 0.00 | 1.37 | 0.00 | 83 | 1005.0 |
| 20260504040834 | 2 | 194 | 0.0 | 4.8 | 0.00 | 1.37 | 0.00 | 83 | 1005.1 |
| 20260504040458 | 2 | 194 | 0.0 | 4.8 | 0.00 | 1.37 | 0.00 | 83 | 1005.0 |
| 20260504040329 | 2 | 199 | 0.0 | 1.6 | 0.00 | 1.37 | 0.00 | 83 | 1005.0 |
| 20260504035430 | 2 | 201 | 0.0 | 1.6 | 0.00 | 1.37 | 1.35 | 83 | 1004.8 |
| 20260504035358 | 2 | 201 | 0.0 | 1.6 | 0.00 | 1.37 | 1.35 | 83 | 1004.8 |
| 20260504035033 | 2 | 215 | 0.0 | 1.6 | 0.00 | 1.37 | 1.37 | 83 | 1004.8 |
| 20260504034528 | 2 | 211 | 0.0 | 1.6 | 0.00 | 1.37 | 1.35 | 83 | 1004.7 |
| 20260504034258 | 2 | 199 | 0.0 | 1.6 | 0.00 | 1.37 | 1.35 | 83 | 1004.7 |
| 20260504034134 | 2 | 198 | 0.0 | 1.6 | 0.00 | 1.37 | 1.37 | 84 | 1004.7 |
| 20260504033700 | 2 | 171 | 0.0 | 1.6 | 0.00 | 1.37 | 1.35 | 84 | 1004.6 |
| 20260504033628 | 2 | 171 | 0.0 | 1.6 | 0.00 | 1.37 | 1.35 | 84 | 1004.6 |
| 20260504033233 | 2 | 178 | 0.0 | 3.2 | 0.00 | 1.37 | 1.37 | 84 | 1004.6 |
| 20260504033159 | 2 | 178 | 0.0 | 3.2 | 0.00 | 1.37 | 1.35 | 84 | 1004.6 |
| 20260504032727 | 2 | 181 | 0.0 | 3.2 | 0.00 | 1.37 | 1.35 | 84 | 1004.6 |
| 20260504032333 | 2 | 192 | 0.0 | 3.2 | 0.00 | 1.37 | 1.37 | 84 | 1004.4 |
| 20260504032059 | 2 | 183 | 0.0 | 1.6 | 0.00 | 1.37 | 1.35 | 84 | 1004.4 |
| 20260504031828 | 2 | 183 | 0.0 | 1.6 | 0.00 | 1.37 | 1.35 | 84 | 1004.5 |
| 20260504031433 | 1 | 182 | 0.0 | 1.6 | 0.00 | 1.37 | 1.37 | 84 | 1004.5 |
| 20260504030959 | 1 | 182 | 0.0 | 1.6 | 0.00 | 1.37 | 1.35 | 84 | 1004.4 |
| 20260504030926 | 1 | 182 | 0.0 | 1.6 | 0.00 | 1.37 | 1.35 | 84 | 1004.4 |
| 20260504030533 | 1 | 0 | 0.0 | 0.0 | 0.00 | 1.37 | 1.37 | 84 | 1004.4 |
| 20260504030112 | 1 | 181 | 0.0 | 1.6 | 0.00 | 1.37 | 1.35 | 84 | 1004.4 |
| 20260504030026 | 1 | 181 | 0.0 | 1.6 | 0.00 | 1.37 | 1.35 | 84 | 1004.4 |
| 20260504025859 | 1 | 181 | 0.0 | 1.6 | 0.00 | 1.37 | 1.35 | 84 | 1004.4 |
| 20260504025633 | 1 | 181 | 0.0 | 1.6 | 0.00 | 1.37 | 1.37 | 84 | 1004.4 |
| 20260504025130 | 1 | 0 | 0.0 | 0.0 | 0.00 | 1.37 | 1.35 | 85 | 1004.3 |
| 20260504024758 | 1 | 0 | 0.0 | 0.0 | 0.00 | 1.37 | 1.35 | 85 | 1004.3 |
| 20260504024733 | 1 | 0 | 0.0 | 0.0 | 0.00 | 1.37 | 1.37 | 85 | 1004.3 |
| 20260504024229 | 1 | 0 | 0.0 | 0.0 | 0.00 | 1.37 | 1.35 | 85 | 1004.3 |
| 20260504023833 | 1 | 0 | 0.0 | 0.0 | 0.00 | 1.37 | 1.37 | 85 | 1004.3 |
| 20260504023659 | 1 | 0 | 0.0 | 0.0 | 0.00 | 1.37 | 1.35 | 85 | 1004.3 |
| 20260504023328 | 1 | 0 | 0.0 | 0.0 | 0.00 | 1.37 | 1.35 | 85 | 1004.3 |
| 20260504022933 | 1 | 0 | 0.0 | 0.0 | 0.00 | 1.37 | 1.37 | 84 | 1004.3 |
| 20260504022558 | 1 | 0 | 0.0 | 0.0 | 0.00 | 1.37 | 1.35 | 84 | 1004.4 |
| 20260504022504 | 1 | 0 | 0.0 | 0.0 | 0.00 | 1.37 | 1.35 | 84 | 1004.4 |
| 20260504022427 | 1 | 0 | 0.0 | 0.0 | 0.00 | 1.37 | 1.35 | 84 | 1004.4 |
| 20260504021531 | 1 | 0 | 0.0 | 0.0 | 0.00 | 1.37 | 1.35 | 83 | 1004.3 |
| 20260504021459 | 1 | 0 | 0.0 | 0.0 | 0.00 | 1.37 | 1.35 | 83 | 1004.3 |
| 20260504020628 | 2 | 0 | 0.0 | 0.0 | 0.00 | 1.37 | 1.35 | 83 | 1004.3 |
| 20260504020358 | 2 | 0 | 0.0 | 0.0 | 0.00 | 1.37 | 1.35 | 83 | 1004.3 |
| 20260504020233 | 2 | 0 | 0.0 | 0.0 | 0.00 | 1.37 | 1.37 | 83 | 1004.3 |
| 20260504015727 | 2 | 0 | 0.0 | 0.0 | 0.00 | 1.37 | 1.35 | 83 | 1004.3 |
| 20260504015333 | 2 | 0 | 0.0 | 0.0 | 0.00 | 1.37 | 1.37 | 82 | 1004.2 |
| 20260504015259 | 2 | 0 | 0.0 | 0.0 | 0.00 | 1.37 | 1.35 | 82 | 1004.2 |
| 20260504014827 | 2 | 0 | 0.0 | 0.0 | 0.00 | 1.37 | 1.35 | 82 | 1004.1 |
| 20260504014433 | 2 | 0 | 0.0 | 0.0 | 0.00 | 1.37 | 1.37 | 81 | 1004.2 |
| 20260504014158 | 2 | 0 | 0.0 | 0.0 | 0.00 | 1.37 | 1.35 | 82 | 1004.1 |
| 20260504013926 | 2 | 0 | 0.0 | 0.0 | 0.00 | 1.37 | 1.35 | 81 | 1004.1 |
| 20260504013533 | 2 | 0 | 0.0 | 0.0 | 0.00 | 1.37 | 1.37 | 81 | 1004.0 |
| 20260504013059 | 2 | 0 | 0.0 | 0.0 | 0.00 | 1.37 | 1.35 | 81 | 1004.1 |
| 20260504013026 | 2 | 0 | 0.0 | 0.0 | 0.00 | 1.37 | 1.35 | 81 | 1004.1 |